Location: Bijele Vode
(45.2833°N, 16.2000°E)
Time: 21:50:11
(UTC+00:00)

Cosmos 1125 Rocket - Pass Details

Date: 25 January 2021
Orbit: 757 x 780 km, 74.0° (Epoch: 08 March)

Event Time Altitude Azimuth Distance (km) Brightness Sun altitude
Exits shadow 02:52:51 - 12° (NNE) 2,565 6.4 -36.8°
Reaches altitude 10° 02:54:20 10° 26° (NNE) 2,338 6.3 -36.6°
Maximum altitude 02:55:59 11° 45° (NE) 2,244 6.4 -36.3°
Drops below altitude 10° 02:57:38 10° 63° (ENE) 2,337 6.7 -36.0°
Sets 03:01:59 0° 97° (E) 3,262 7.7 -35.2°
